Location: Zagreb
(45.8000°N, 16.0000°E)
Time: 18:09:30
(UTC+01:00)

Vanguard 2 Rocket - Pass Details

Date: 19 December 2025
Orbit: 553 x 3287 km, 32.9° (Epoch: 17 January)

Event Time Altitude Azimuth Distance (km) Brightness Sun altitude
Rises 04:50:30 0° 205° (SSW) 6,489 11.1 -27.2°
Reaches altitude 10° 04:55:25 10° 195° (SSW) 5,778 10.9 -26.4°
Maximum altitude 05:10:05 29° 144° (SE) 4,765 10.9 -23.8°
Drops below altitude 10° 05:25:02 10° 93° (E) 5,950 12.2 -21.3°
Sets 05:30:07 0° 84° (E) 6,711 12.6 -20.4°
